Regional Weather Roundup
Issued by NWS

Home | Current Version | Previous Version | Graphics & Text | Print | Product List | Glossary On
Versions: 1 2 3 4 5 6 7 8 9 10 11 12 13 14 15 16 17 18 19 20 21 22 23 24 25 26 27 28 29 30 31 32 33 34 35 36 37 38 39 40 41 42 43 44 45 46 47 48 49 50
000
ASUS43 KLOT 182212
RWRIL

ILLINOIS REGIONAL WEATHER ROUNDUP
NATIONAL WEATHER SERVICE CHICAGO/ROMEOVILLE IL
500 PM CDT SAT APR 18 2015

NOTE: "FAIR" INDICATES FEW OR NO CLOUDS BELOW 12,000 FEET WITH NO
SIGNIFICANT WEATHER AND/OR OBSTRUCTIONS TO VISIBILITY.

* THESE STATIONS ARE NOT UNDER NWS QUALITY CONTROL. THEY ALSO MAY NOT
  REPORT WEATHER SUCH AS PRECIPITATION OR FOG.

ILZ001-002-007-009-015-016-024-182300-
NORTHWEST ILLINOIS

CITY           SKY/WX    TMP DP  RH WIND       PRES   REMARKS
MOLINE         CLOUDY    71  55  56 E18       29.90F
STERLING*      CLOUDY    75  46  35 SE14      29.95S
SAVANNA*       PTSUNNY   75  37  25 E17       29.95F
$$

ILZ003-004-008-010-011-017-018-182300-
NORTH CENTRAL ILLINOIS

CITY           SKY/WX    TMP DP  RH WIND       PRES   REMARKS
ROCKFORD       PTSUNNY   73  38  27 E16       30.00F
FREEPORT*      MOSUNNY   71  37  28 E20       30.00F
ROCHELLE*      MOSUNNY   74  42  31 E20       29.99S
DE KALB*       PTSUNNY   68  42  38 E15       30.01R
PERU*          PTSUNNY   75  49  40 E10       29.95F
$$

ILZ005-006-012>014-019>023-182300-
NORTHEAST ILLINOIS

CITY           SKY/WX    TMP DP  RH WIND       PRES   REMARKS
CHICAGO-OHARE  PTSUNNY   54  36  50 NE13      30.03F
CHICAGO-MIDWAY PTSUNNY   56  37  49 NE10      30.03S
AURORA         PTSUNNY   66  41  40 NE16      30.00S
LANSING*       PTSUNNY   50  36  58 NE8       30.04S
JOLIET*        PTSUNNY   67  45  44 NE16      29.99S
WAUKEGAN       MOSUNNY   52  34  50 N15G26    30.04F
DUPAGE AIRPORT PTSUNNY   62  38  40 E13       30.01S
KANKAKEE*      CLOUDY    65  47  52 NE10G17   29.99S
WHEELING       MOSUNNY   53  34  48 NE20G29   30.03F
MORRIS*        MOSUNNY   72  44  37 NE9       29.97S
ROMEOVILLE*    PTSUNNY   63  39  41 NE14      30.00S
NORTHERLY ISL    N/A     46  37  71 N18         N/A
$$

LMZ740>746-182300-
SOUTHERN LAKE MICHIGAN

STATION/POSITION SKY/WX   TEMP    WIND        PRES    VSBY  WAVE
                          AIR SEA DIR/SP/G                  HT/PER
                          (F)     (DEG/KT/KT) (MB)    (MI)  (FT/S)
HARRISON CRIB              40     340/ 19/ 21   N/A
BURNHAM HARBOR             46      10/ 15/ 19   N/A
CALUMET HARBOR             45     340/ 12/ 19   N/A
BURNS HARBOR               41     350/  6/  7 1018.3
MICHIGAN CITY              44     300/  5/  6   N/A
MICHIGAN CITY 6N           41 47  330/  4/  6   N/A           3/ 5
$$

ILZ025>027-034>036-040-047-049-050-058-095>099-182300-
WEST-CENTRAL ILLINOIS

CITY           SKY/WX    TMP DP  RH WIND       PRES   REMARKS
QUINCY         MOSUNNY   77  54  44 S14       29.87F
GALESBURG*     CLOUDY    78  49  36 SE9G16    29.90F
MACOMB*        PTSUNNY   80  47  31 SE13      29.90F
JACKSONVILLE*  PTSUNNY   79  56  45 SE12      29.90F
PITTSFIELD*    MOSUNNY   79  56  45 SE12G17   29.90S
$$

ILZ028>032-037-038-041>044-048-051>054-059>061-182300-
CENTRAL ILLINOIS

CITY           SKY/WX    TMP DP  RH WIND       PRES   REMARKS
PONTIAC        CLOUDY    80  51  36 E13       29.95F
BLOOMINGTON    PTSUNNY   80  49  33 SE14      29.94F
DECATUR        PTSUNNY   76  50  40 SE13      29.93F
PEORIA         PTSUNNY   81  49  32 VRB7      29.90F HX  80
LACON*         PTSUNNY   77  54  45 E9        29.91F
LINCOLN*       PTSUNNY   80  44  27 SE14G23   29.89F
SPRINGFIELD    CLOUDY    78  52  40 S13       29.91F
TAYLORVILLE    CLOUDY    73  54  49 SE10      29.92F
$$

ILZ033-039-045-046-055>057-062-063-182300-
EAST-CENTRAL ILLINOIS

CITY           SKY/WX    TMP DP  RH WIND       PRES   REMARKS
CHAMPAIGN      PTSUNNY   79  45  29 SE15      29.93F
DANVILLE*      PTSUNNY   76  48  36 SE10G16   29.93F
RANTOUL*       MOSUNNY   80  47  31 SE12      29.94F
MATTOON        CLOUDY    74  49  41 E10       29.93F
PARIS*         CLOUDY    75  49  38 E6        29.95F
$$

ILZ079-100>102-182300-
SOUTHWEST ILLINOIS

CITY           SKY/WX    TMP DP  RH WIND       PRES   REMARKS
BELLEVILLE     MOSUNNY   76  60  56 SE10      29.87F
CAHOKIA*       MOSUNNY   77  59  53 SE9       29.88F
SPARTA*        MOSUNNY   75  59  55 E9        29.90F
$$

ILZ064>066-069>071-074>076-080>082-084>086-088>090-092>094-182300-
SOUTH-CENTRAL ILLINOIS

CITY           SKY/WX    TMP DP  RH WIND       PRES   REMARKS
CARBONDALE     PTSUNNY   77  56  48 E3        29.87F
CAIRO*         CLOUDY    78  58  50 E6        29.87S
EFFINGHAM*     PTSUNNY   77  47  34 E8        29.93F
MARION         PTSUNNY   79  57  47 NE7       29.88F HX  80
MT. VERNON     PTSUNNY   77  55  47 E8        29.90F
CENTRALIA*     MOSUNNY   79  53  41 SE6       29.90S
SALEM*         PTSUNNY   79  54  41 E6        29.91S
METROPOLIS*    PTSUNNY   79  56  44 SE5       29.86F HX  80
$$

ILZ067-068-072-073-078-083-087-091-182300-
SOUTHEAST ILLINOIS

CITY           SKY/WX    TMP DP  RH WIND       PRES   REMARKS
LAWRENCEVILLE  PTSUNNY   79  52  38 SE8       29.91F
FLORA*         PTSUNNY   76  53  45 SE8       29.92S
FAIRFIELD*     PTSUNNY   77  55  45 E5        29.89F
HARRISBURG*    MOSUNNY   79  57  47 E9        29.89F HX  80
ROBINSON*      PTSUNNY   76  46  34 E10       29.93F
CARMI*         MOSUNNY   80  47  31 E8        29.89F
$$

ABBREVIATIONS USED IN REMARKS
   TC - TEMPERATURE IN CELSIUS
  WCI - WIND CHILL INDEX
   HX - HEAT INDEX
  VSB - VISIBILITY
$$



USA.gov is the U.S. government's official web portal to all federal, state and local government web resources and services.